Time,TemperatureF,DewpointF,PressureIn,WindDirection,WindDirectionDegrees,WindSpeedMPH,WindSpeedGustMPH,Humidity,HourlyPrecipIn,Conditions,Clouds,dailyrainin,SoftwareType,DateUTC
2013-07-20 00:02:00,85.0,76.0,-100.00,South,189,6.0,10.0,74,0.00,,,-99.99,,2013-07-20 04:02:00,
2013-07-20 00:12:00,85.0,75.0,-100.00,South,191,6.0,15.0,74,0.00,,,-99.99,,2013-07-20 04:12:00,
2013-07-20 02:11:00,80.0,64.0,-100.00,SW,236,4.0,12.0,58,0.00,,,-99.99,,2013-07-20 06:11:00,
2013-07-20 02:52:00,79.0,65.0,-100.00,SSW,196,4.0,9.0,62,0.00,,,-99.99,,2013-07-20 06:52:00,
2013-07-20 03:01:00,78.0,65.0,-100.00,SSW,192,4.0,7.0,63,0.00,,,-99.99,,2013-07-20 07:01:00,
2013-07-20 03:22:00,78.0,65.0,-100.00,SSW,202,4.0,11.0,63,0.00,,,-99.99,,2013-07-20 07:22:00,
2013-07-20 03:33:00,78.0,65.0,-100.00,SSW,213,4.0,9.0,64,0.00,,,-99.99,,2013-07-20 07:33:00,
2013-07-20 04:11:00,77.0,65.0,-100.00,SW,215,1.0,4.0,66,0.00,,,-99.99,,2013-07-20 08:11:00,
2013-07-20 04:22:00,76.0,64.0,-100.00,SW,226,1.0,4.0,66,0.00,,,-99.99,,2013-07-20 08:22:00,
2013-07-20 04:32:00,76.0,64.0,-100.00,WSW,248,1.0,4.0,66,0.00,,,-99.99,,2013-07-20 08:32:00,
2013-07-20 04:44:00,76.0,64.0,-100.00,SW,234,1.0,7.0,67,0.00,,,-99.99,,2013-07-20 08:44:00,
2013-07-20 05:11:00,-999.0,-99.9,-100.00,South,184,0.0,1.0,-999,-99.99,,,-99.99,,2013-07-20 09:11:00,
2013-07-20 05:33:00,75.0,65.0,-100.00,WSW,241,0.0,1.0,72,0.00,,,-99.99,,2013-07-20 09:33:00,
2013-07-20 05:43:00,74.0,65.0,-100.00,SW,223,0.0,1.0,73,0.00,,,-99.99,,2013-07-20 09:43:00,
2013-07-20 05:53:00,74.0,65.0,-100.00,SSW,200,0.0,1.0,73,0.00,,,-99.99,,2013-07-20 09:53:00,
2013-07-20 06:01:00,75.0,65.0,-100.00,South,188,1.0,5.0,72,0.00,,,-99.99,,2013-07-20 10:01:00,
2013-07-20 06:22:00,75.0,66.0,-100.00,South,189,0.0,1.0,73,0.00,,,-99.99,,2013-07-20 10:22:00,
2013-07-20 06:42:00,75.0,66.0,-100.00,West,267,0.0,1.0,74,0.00,,,-99.99,,2013-07-20 10:42:00,
2013-07-20 07:22:00,78.0,67.0,-100.00,WSW,240,0.0,3.0,68,0.00,,,-99.99,,2013-07-20 11:22:00,
2013-07-20 07:43:00,78.0,68.0,-100.00,WSW,240,0.0,1.0,71,0.00,,,-99.99,,2013-07-20 11:43:00,
2013-07-20 08:01:00,80.0,68.0,-100.00,West,268,0.0,2.0,68,0.00,,,-99.99,,2013-07-20 12:01:00,
2013-07-20 08:11:00,79.0,68.0,-100.00,West,260,0.0,2.0,70,0.00,,,-99.99,,2013-07-20 12:11:00,
2013-07-20 08:32:00,77.0,69.0,-100.00,West,280,0.0,2.0,74,0.00,,,-99.99,,2013-07-20 12:32:00,
2013-07-20 08:52:00,83.0,68.0,-100.00,West,264,0.0,1.0,59,0.00,,,-99.99,,2013-07-20 12:52:00,
2013-07-20 09:11:00,82.0,68.0,-100.00,SW,223,0.0,2.0,62,0.00,,,-99.99,,2013-07-20 13:11:00,
2013-07-20 09:22:00,81.0,69.0,-100.00,SSW,213,1.0,3.0,67,0.00,,,-99.99,,2013-07-20 13:22:00,
2013-07-20 09:43:00,-999.0,-99.9,-100.00,WNW,295,1.0,3.0,-999,-99.99,,,-99.99,,2013-07-20 13:43:00,
2013-07-20 09:53:00,83.0,70.0,-100.00,West,275,1.0,3.0,65,0.00,,,-99.99,,2013-07-20 13:53:00,
2013-07-20 10:22:00,84.0,69.0,-100.00,SSW,205,1.0,4.0,61,0.00,,,-99.99,,2013-07-20 14:22:00,
2013-07-20 10:43:00,85.0,68.0,-100.00,WSW,248,1.0,7.0,58,0.00,,,-99.99,,2013-07-20 14:43:00,
2013-07-20 11:01:00,85.0,68.0,-100.00,West,275,4.0,9.0,58,0.00,,,-99.99,,2013-07-20 15:01:00,
2013-07-20 11:23:00,87.0,68.0,-100.00,West,275,1.0,6.0,53,0.00,,,-99.99,,2013-07-20 15:23:00,
2013-07-20 11:53:00,-999.0,-99.9,-100.00,West,277,2.0,7.0,-999,-99.99,,,-99.99,,2013-07-20 15:53:00,
2013-07-20 12:22:00,89.0,67.0,-100.00,WNW,296,2.0,9.0,49,0.00,,,-99.99,,2013-07-20 16:22:00,
2013-07-20 13:53:00,90.0,69.0,-100.00,WNW,282,3.0,10.0,50,0.00,,,-99.99,,2013-07-20 17:53:00,
2013-07-20 14:01:00,89.0,70.0,-100.00,NW,306,2.0,6.0,54,0.00,,,-99.99,,2013-07-20 18:01:00,
2013-07-20 14:25:00,90.0,69.0,-100.00,SW,224,3.0,10.0,50,0.00,,,-99.99,,2013-07-20 18:25:00,
2013-07-20 15:45:00,-999.0,-99.9,-100.00,WSW,258,4.0,12.0,-999,0.00,,,-99.99,,2013-07-20 19:45:00,
2013-07-20 16:56:00,87.0,69.0,-100.00,WNW,285,2.0,8.0,54,0.00,,,-99.99,,2013-07-20 20:56:00,
2013-07-20 17:28:00,87.0,68.0,-100.00,WSW,248,2.0,7.0,53,0.00,,,-99.99,,2013-07-20 21:28:00,
2013-07-20 17:46:00,87.0,68.0,-100.00,SW,219,2.0,9.0,54,0.00,,,-99.99,,2013-07-20 21:46:00,
2013-07-20 17:55:00,87.0,68.0,-100.00,SW,219,2.0,9.0,54,0.00,,,-99.99,,2013-07-20 21:55:00,
2013-07-20 19:29:00,84.0,65.0,-100.00,NW,311,5.0,11.0,54,0.00,,,-99.99,,2013-07-20 23:29:00,
2013-07-20 19:38:00,83.0,66.0,-100.00,NW,311,7.0,12.0,57,0.00,,,-99.99,,2013-07-20 23:38:00,
2013-07-20 19:56:00,82.0,64.0,-100.00,NW,304,4.0,14.0,55,0.00,,,-99.99,,2013-07-20 23:56:00,
2013-07-20 20:08:00,82.0,65.0,-100.00,WNW,282,4.0,10.0,57,0.00,,,-99.99,,2013-07-21 00:08:00,
2013-07-20 21:48:00,-999.0,-99.9,-100.00,NW,311,6.0,8.0,-999,-99.99,,,-99.99,,2013-07-21 01:48:00,
2013-07-20 22:28:00,76.0,63.0,-100.00,NW,313,2.0,5.0,65,0.00,,,-99.99,,2013-07-21 02:28:00,